GPS BIIF-6

Last updated on Wed Sep 17 2025 00:02:34 GMT+0000 (Coordinated Universal Time)

1 39741U 14026A 25259.24210158 -.00000103 00000+0 00000+0 0 9996 2 39741 56.6150 342.1807 0035967 317.0566 42.7055 2.00567465 83045
UTC large
Height (km)
Speed (km/s)
/
Latitude / Longitude
Inclination (degrees)
Orbital Period (minutes)
Azimuth
Elevation
Range (km)
Doppler Factor

Next 0 passes for location: London (51.5072 / 0.1276)

Sorry there are no passes over London.